Tracking 33464 objects as of 13-Mar-2026
HD Live streaming from Space Station
objects crossing your sky now

CLUSTER II-FM6

Track CLUSTER II-FM6 now!
CLUSTER II-FM6 is classified as:


NORAD ID: 26410
Int'l Code: 2000-041A
Perigee: 1,410.7 km
Apogee: 130,089.2 km
Inclination: 149.1 °
Period: 3,212.6 minutes
Semi major axis: 72120 km
RCS: 1.9953 m2 (large)
Launch date: July 16, 2000
Source: European Space Agency (ESA)
Launch site: TYURATAM MISSILE AND SPACE COMPLEX (TTMTR)
Your satellite tracking list
Your tracking list is empty




NASA's NSSDC Master Catalog

Two Line Element Set (TLE):
1 26410U 00041A   26072.18498853  .00009157  00000-0  00000+0 0  9992
2 26410 149.0994  35.5717 8921020 251.7870   0.4837  0.44824009 19879
Source of the keplerian elements: AFSPC